Regional Weather Roundup
Issued by NWS

Home | Current Version | Previous Version | Graphics & Text | Print | Product List | Glossary On
Versions: 1 2 3 4 5 6 7 8 9 10 11 12 13 14 15 16 17 18 19 20 21 22 23 24 25 26 27 28 29 30 31 32 33 34 35 36 37 38 39 40 41 42 43 44 45 46 47 48 49 50
000
ASUS43 KDMX 292108
RWRIA

WEATHER ROUNDUP FOR IOWA
NATIONAL WEATHER SERVICE DES MOINES IA
400 PM CDT SUN MAY 29 2016

NOTE: "FAIR" INDICATES FEW OR NO CLOUDS BELOW 12,000 FEET WITH NO
SIGNIFICANT WEATHER AND/OR OBSTRUCTIONS TO VISIBILITY.

* - THESE STATIONS ARE NOT NWS STATIONS...THUS NOT UNDER NWS
QUALITY CONTROL.  THEY ALSO DO NOT REPORT WEATHER SUCH
AS PRECIPITATION OR FOG.

IAZ001>003-012>014-020>022-031>034-043>046-292200-
   NORTHWEST IOWA

CITY           SKY/WX    TMP DP  RH WIND       PRES   REMARKS
CARROLL *      MOSUNNY   82  54  36 W12G17    30.03F HX  81
CHEROKEE *     MOSUNNY   79  59  50 NW6G17    30.03F HX  80
DENISON *      SUNNY     81  54  39 W7G15     30.02F HX  80
LE MARS *      MOSUNNY   79  61  53 W9        30.04F HX  80
ORANGE CITY *  SUNNY     77  59  53 W12       30.04F
SHELDON *      MOSUNNY   77  55  47 NW9G18    30.03S
SIOUX CITY     MOSUNNY   81  59  47 W10       30.03F HX  81
SPENCER        SUNNY     77  59  53 NW15      30.03F
STORM LAKE *     N/A     81  54  39 W14G21    30.04F HX  80
$$

IAZ055>058-069>071-079>083-090>094-292200-
   SOUTHWEST IOWA

CITY           SKY/WX    TMP DP  RH WIND       PRES   REMARKS
ATLANTIC *     MOSUNNY   82  55  39 W7G13     30.04F HX  82
AUDUBON *        N/A     81  55  41 SW7       30.06F HX  80
CLARINDA *       N/A     84  63  48 MISG      30.06F HX  85
COUNCIL BLFS * SUNNY     82  57  42 CALM      30.04F HX  82
CRESTON *      SUNNY     81  59  47 W15G23    30.08S HX  81
HARLAN  *      SUNNY     82  54  36 W12       30.07F HX  81
LAMONI         MOSUNNY   79  61  53 W7        30.06F HX  80
RED OAK *      SUNNY     84  57  39 W7        30.05F HX  83
SHENANDOAH *   MOSUNNY   84  61  45 W7G18     30.04F HX  84
$$

IAZ047>049-059>061-072>074-084-292200-
   CENTRAL IOWA

CITY           SKY/WX    TMP DP  RH WIND       PRES   REMARKS
AMES           MOSUNNY   82  57  42 W12       30.03F HX  82
ANKENY *       SUNNY     82  55  39 NW5       30.03F HX  82
BOONE *        MOSUNNY   81  57  44 W10G16    30.03F HX  81
CHARITON *     SUNNY     81  59  47 W7G13     30.06S HX  81
DES MOINES     MOSUNNY   83  53  35 W9        30.03F HX  82
GRINNELL*      SUNNY     79  59  50 W6        30.05  HX  80
KNOXVILLE *    SUNNY     81  54  39 W6G14     30.04S HX  80
MARSHALLTOWN   MOSUNNY   80  59  48 W15G22    30.02F HX  81
NEWTON *       SUNNY     81  57  44 W8        30.04S HX  81
PELLA *        SUNNY     81  57  44 W7        30.06S HX  81
PERRY *          N/A     81  54  39 W9        30.04S HX  80
$$

IAZ004>006-015-016-023>025-035-036-292200-
   NORTH CENTRAL IOWA

CITY           SKY/WX    TMP DP  RH WIND       PRES   REMARKS
ALGONA *       MOSUNNY   77  57  50 W14G24    30.02F
CLARION *      MOSUNNY   81  57  44 W15G22    30.02S HX  81
ESTHERVILLE    CLOUDY    76  62  62 W16       30.02F
FORT DODGE *   SUNNY     81  55  41 W10       30.03F HX  80
MASON CITY     CLOUDY    69  60  73 W9        30.03F
FOREST CITY *  RAIN      72  57  60 NW18G28   30.03S
WEBSTER CITY * MOSUNNY   82  57  42 SW18      30.00F HX  82
IOWA FALLS *     N/A     81  57  44 W16       30.04S HX  81
$$

IAZ007>011-017>019-026>030-037>042-050>054-066-292200-
   NORTHEAST IOWA

CITY           SKY/WX    TMP DP  RH WIND       PRES   REMARKS
CEDAR RAPIDS   MOSUNNY   77  59  53 W10G21    30.02F
CHARLES CITY * MOSUNNY   79  59  50 W16G24    30.01F HX  80
CLINTON *      PTSUNNY   80  60  50 NW18      30.02F HX  81
DECORAH *      MOSUNNY   77  59  53 VRB6G20   29.98F
DUBUQUE        MOSUNNY   76  58  53 W13       30.01F
MONTICELLO *   MOSUNNY   77  59  53 W10G21    30.01F
OELWEIN *      MOSUNNY   79  59  50 W15G23    30.01S HX  80
WATERLOO       MOSUNNY   81  56  42 W13G21    30.00F HX  81
$$

IAZ064-065-067-068-078-292200-
   EAST CENTRAL IOWA

CITY           SKY/WX    TMP DP  RH WIND       PRES   REMARKS
DAVENPORT      MOSUNNY   80  56  43 W14G21    30.03F HX  80
IOWA CITY      MOSUNNY   81  59  47 VRB7G16   30.04F HX  81
MT. PLEASANT * SUNNY     82  59  44 SW8       30.06S HX  82
MUSCATINE *    MOSUNNY   82  55  39 W7G16     30.04S HX  82
QUAD CITIES    MOSUNNY   81  56  42 W14       30.02F HX  81
$$

IAZ062-063-075>077-085>089-095>099-292200-
   SOUTHEAST IOWA

CITY           SKY/WX    TMP DP  RH WIND       PRES   REMARKS
BURLINGTON     SUNNY     82  58  43 W7G16     30.05F HX  82
FAIRFIELD *      N/A    N/A N/A N/A MISG        N/A
FORT MADISON * SUNNY     82  55  39 W8        30.07S HX  82
KEOKUK *       SUNNY     82  57  42 W8        30.05F HX  82
OSKALOOSA *      N/A     82  52  34 W5        30.05F HX  81
OTTUMWA        SUNNY     81  55  40 W8        30.05F HX  81
WASHINGTON *   SUNNY     82 -31   1 W13       30.06F
$$

ABBREVIATIONS USED IN REMARKS
   TC - TEMPERATURES IN CELSIUS
  WCI - WIND CHILL INDEX
   HX - HEAT INDEX
  VSB - VISIBILITY
$$





USA.gov is the U.S. government's official web portal to all federal, state and local government web resources and services.